| time (UTC) | temp F | wind direction | speed knots | gust knots | rain 1hr in | rain 24hr in | rain mn in | humidity % | barometer mb |
| 20260506025052 | 77 | 184 | 2.6 | 7.0 | 0.00 | 0.00 | 0.00 | 85 | 1007.7 |
| 20260506024552 | 77 | 162 | 4.3 | 7.0 | 0.00 | 0.00 | 0.00 | 85 | 1007.7 |
| 20260506024055 | 77 | 209 | 2.6 | 7.0 | 0.00 | 0.00 | 0.00 | 85 | 1007.5 |
| 20260506023552 | 77 | 127 | 1.7 | 4.3 | 0.00 | 0.00 | 0.00 | 84 | 1007.4 |
| 20260506023055 | 77 | 184 | 1.7 | 5.2 | 0.00 | 0.00 | 0.00 | 84 | 1007.4 |
| 20260506022553 | 77 | 184 | 1.7 | 5.2 | 0.00 | 0.00 | 0.00 | 84 | 1007.3 |
| 20260506022053 | 77 | 163 | 1.7 | 4.3 | 0.00 | 0.00 | 0.00 | 84 | 1007.2 |
| 20260506021558 | 77 | 167 | 0.9 | 4.3 | 0.00 | 0.00 | 0.00 | 83 | 1007.1 |
| 20260506021053 | 77 | 183 | 0.9 | 5.2 | 0.00 | 0.00 | 0.00 | 83 | 1007.1 |
| 20260506020555 | 77 | 159 | 0.9 | 5.2 | 0.00 | 0.00 | 0.00 | 83 | 1007.0 |
| 20260506020059 | 77 | 157 | 1.7 | 5.2 | 0.00 | 0.00 | 0.00 | 83 | 1006.9 |
| 20260506015553 | 77 | 185 | 1.7 | 4.3 | 0.00 | 0.00 | 0.00 | 83 | 1006.8 |
| 20260506015055 | 77 | 158 | 0.9 | 4.3 | 0.00 | 0.00 | 0.00 | 83 | 1006.9 |
| 20260506014600 | 77 | 158 | 0.9 | 4.3 | 0.00 | 0.00 | 0.00 | 83 | 1006.9 |
| 20260506014054 | 77 | 158 | 0.9 | 3.5 | 0.00 | 0.00 | 0.00 | 82 | 1006.8 |
| 20260506013552 | 78 | 158 | 0.9 | 4.3 | 0.00 | 0.00 | 0.00 | 82 | 1006.7 |
| 20260506013055 | 78 | 158 | 1.7 | 6.1 | 0.00 | 0.00 | 0.00 | 81 | 1006.8 |
| 20260506012552 | 78 | 175 | 1.7 | 6.1 | 0.00 | 0.00 | 0.00 | 81 | 1006.8 |
| 20260506012058 | 78 | 205 | 0.9 | 4.3 | 0.00 | 0.00 | 0.00 | 81 | 1006.7 |
| 20260506011556 | 78 | 169 | 1.7 | 4.3 | 0.00 | 0.00 | 0.00 | 81 | 1006.7 |
| 20260506011052 | 79 | 175 | 1.7 | 3.5 | 0.00 | 0.00 | 0.00 | 81 | 1006.6 |
| 20260506010554 | 79 | 171 | 0.9 | 3.5 | 0.00 | 0.00 | 0.00 | 80 | 1006.7 |
| 20260506010058 | 79 | 183 | 0.9 | 4.3 | 0.00 | 0.00 | 0.00 | 80 | 1006.8 |
| 20260506005553 | 79 | 183 | 0.9 | 4.3 | 0.00 | 0.00 | 0.00 | 79 | 1006.7 |
| 20260506005053 | 79 | 195 | 0.9 | 5.2 | 0.00 | 0.00 | 0.00 | 79 | 1006.8 |
| 20260506004554 | 80 | 180 | 1.7 | 5.2 | 0.00 | 0.00 | 0.00 | 78 | 1006.7 |
| 20260506004053 | 80 | 178 | 1.7 | 4.3 | 0.00 | 0.00 | 0.00 | 78 | 1006.7 |
| 20260506003557 | 80 | 167 | 1.7 | 6.1 | 0.00 | 0.00 | 0.00 | 78 | 1006.9 |
| 20260506003112 | 80 | 183 | 1.7 | 6.1 | 0.00 | 0.00 | 0.00 | 77 | 1006.8 |
| 20260506002552 | 80 | 195 | 2.6 | 5.2 | 0.00 | 0.00 | 0.00 | 77 | 1006.8 |
| 20260506002053 | 80 | 173 | 2.6 | 5.2 | 0.00 | 0.00 | 0.00 | 77 | 1006.7 |
| 20260506001611 | 80 | 185 | 1.7 | 4.3 | 0.00 | 0.00 | 0.00 | 78 | 1006.7 |
| 20260506001053 | 80 | 205 | 1.7 | 4.3 | 0.00 | 0.00 | 0.00 | 77 | 1006.8 |
| 20260506000553 | 81 | 186 | 1.7 | 5.2 | 0.00 | 0.00 | 0.00 | 76 | 1006.8 |
| 20260506000058 | 81 | 189 | 1.7 | 6.1 | 0.00 | 0.00 | 0.00 | 76 | 1006.8 |
| 20260505235552 | 81 | 192 | 2.6 | 7.0 | 0.00 | 0.00 | 0.00 | 75 | 1006.8 |
| 20260505235052 | 81 | 131 | 1.7 | 7.0 | 0.00 | 0.00 | 0.00 | 75 | 1006.8 |
| 20260505234611 | 81 | 131 | 2.6 | 7.0 | 0.00 | 0.00 | 0.00 | 75 | 1006.7 |
| 20260505234053 | 81 | 175 | 2.6 | 7.8 | 0.00 | 0.00 | 0.00 | 75 | 1006.7 |
| 20260505233553 | 81 | 175 | 3.5 | 7.8 | 0.00 | 0.00 | 0.00 | 75 | 1006.4 |
| 20260505233053 | 81 | 173 | 2.6 | 7.8 | 0.00 | 0.00 | 0.00 | 74 | 1006.5 |
| 20260505232553 | 81 | 177 | 2.6 | 7.8 | 0.00 | 0.00 | 0.00 | 76 | 1006.4 |
| 20260505232056 | 81 | 214 | 3.5 | 7.8 | 0.00 | 0.00 | 0.00 | 76 | 1006.2 |
| 20260505231600 | 81 | 203 | 3.5 | 7.8 | 0.00 | 0.00 | 0.00 | 76 | 1006.1 |
| 20260505231052 | 81 | 166 | 2.6 | 9.6 | 0.00 | 0.00 | 0.00 | 77 | 1006.0 |
| 20260505230553 | 81 | 215 | 3.5 | 9.6 | 0.00 | 0.00 | 0.00 | 77 | 1006.1 |
| 20260505230058 | 81 | 175 | 2.6 | 8.7 | 0.00 | 0.00 | 0.00 | 76 | 1006.1 |
| 20260505225556 | 82 | 176 | 2.6 | 8.7 | 0.00 | 0.00 | 0.00 | 75 | 1006.2 |
| 20260505225053 | 82 | 183 | 4.3 | 8.7 | 0.00 | 0.00 | 0.00 | 73 | 1006.0 |
| 20260505224601 | 82 | 200 | 2.6 | 8.7 | 0.00 | 0.00 | 0.00 | 74 | 1006.0 |
| 20260505224055 | 82 | 207 | 5.2 | 8.7 | 0.00 | 0.00 | 0.00 | 73 | 1006.0 |
| 20260505223554 | 82 | 179 | 3.5 | 11.3 | 0.00 | 0.00 | 0.00 | 74 | 1006.0 |
| 20260505223108 | 82 | 175 | 4.3 | 11.3 | 0.00 | 0.00 | 0.00 | 73 | 1006.0 |
| 20260505222553 | 82 | 152 | 4.3 | 9.6 | 0.00 | 0.00 | 0.00 | 74 | 1006.0 |
| 20260505222053 | 82 | 184 | 3.5 | 9.6 | 0.00 | 0.00 | 0.00 | 75 | 1005.9 |
| 20260505221557 | 82 | 189 | 5.2 | 8.7 | 0.00 | 0.00 | 0.00 | 74 | 1006.0 |
| 20260505221054 | 82 | 128 | 3.5 | 8.7 | 0.00 | 0.00 | 0.00 | 74 | 1006.1 |
| 20260505220553 | 82 | 170 | 3.5 | 10.4 | 0.00 | 0.00 | 0.00 | 73 | 1006.2 |
| 20260505220059 | 82 | 128 | 4.3 | 11.3 | 0.00 | 0.00 | 0.00 | 73 | 1006.2 |
| 20260505215558 | 83 | 179 | 4.3 | 11.3 | 0.00 | 0.00 | 0.00 | 72 | 1006.1 |
| 20260505215053 | 83 | 180 | 4.3 | 9.6 | 0.00 | 0.00 | 0.00 | 71 | 1006.3 |
| 20260505214602 | 83 | 181 | 5.2 | 9.6 | 0.00 | 0.00 | 0.00 | 70 | 1006.5 |
| 20260505214053 | 84 | 205 | 2.6 | 12.2 | 0.00 | 0.00 | 0.00 | 72 | 1006.6 |
| 20260505213553 | 83 | 257 | 4.3 | 12.2 | 0.00 | 0.00 | 0.00 | 71 | 1006.6 |
| 20260505213054 | 83 | 209 | 5.2 | 11.3 | 0.00 | 0.00 | 0.00 | 71 | 1006.4 |
| 20260505212553 | 83 | 173 | 6.1 | 10.4 | 0.00 | 0.00 | 0.00 | 70 | 1006.5 |
| 20260505212053 | 83 | 205 | 4.3 | 10.4 | 0.00 | 0.00 | 0.00 | 70 | 1006.7 |
| 20260505211617 | 83 | 195 | 4.3 | 10.4 | 0.00 | 0.00 | 0.00 | 73 | 1007.0 |
| 20260505211054 | 83 | 173 | 5.2 | 12.2 | 0.00 | 0.00 | 0.00 | 70 | 1006.8 |
| 20260505210552 | 83 | 162 | 7.0 | 14.8 | 0.00 | 0.00 | 0.00 | 71 | 1006.8 |
| 20260505210056 | 82 | 191 | 5.2 | 15.6 | 0.00 | 0.00 | 0.00 | 72 | 1006.8 |
| 20260505205552 | 82 | 189 | 7.8 | 15.6 | 0.00 | 0.00 | 0.00 | 71 | 1006.8 |
| 20260505205052 | 82 | 229 | 6.1 | 12.2 | 0.00 | 0.00 | 0.00 | 72 | 1007.0 |
| 20260505204556 | 82 | 176 | 5.2 | 12.2 | 0.00 | 0.00 | 0.00 | 73 | 1007.0 |
| 20260505204057 | 82 | 165 | 6.1 | 11.3 | 0.00 | 0.00 | 0.00 | 72 | 1007.1 |
| 20260505203554 | 82 | 186 | 4.3 | 8.7 | 0.00 | 0.00 | 0.00 | 75 | 1007.0 |
| 20260505203121 | 82 | 241 | 5.2 | 12.2 | 0.00 | 0.00 | 0.00 | 74 | 1007.1 |
| 20260505202554 | 82 | 138 | 5.2 | 12.2 | 0.00 | 0.00 | 0.00 | 73 | 1007.3 |
| 20260505202054 | 82 | 214 | 4.3 | 11.3 | 0.00 | 0.00 | 0.00 | 74 | 1007.2 |
| 20260505201555 | 81 | 229 | 6.1 | 11.3 | 0.00 | 0.00 | 0.00 | 74 | 1007.3 |
| 20260505201053 | 81 | 205 | 5.2 | 11.3 | 0.00 | 0.00 | 0.00 | 74 | 1007.5 |
| 20260505200553 | 81 | 161 | 4.3 | 11.3 | 0.00 | 0.00 | 0.00 | 74 | 1007.6 |
| 20260505200055 | 81 | 225 | 6.1 | 12.2 | 0.00 | 0.00 | 0.00 | 73 | 1007.6 |
| 20260505195552 | 81 | 180 | 5.2 | 12.2 | 0.00 | 0.00 | 0.00 | 76 | 1007.6 |
| 20260505195052 | 81 | 176 | 6.1 | 12.2 | 0.00 | 0.00 | 0.00 | 75 | 1007.7 |
| 20260505194558 | 81 | 114 | 6.1 | 12.2 | 0.00 | 0.00 | 0.00 | 74 | 1007.8 |
| 20260505194053 | 81 | 177 | 4.3 | 8.7 | 0.00 | 0.00 | 0.00 | 75 | 1007.8 |
| 20260505193553 | 81 | 129 | 2.6 | 10.4 | 0.00 | 0.00 | 0.00 | 76 | 1007.9 |
| 20260505193059 | 80 | 207 | 5.2 | 10.4 | 0.00 | 0.00 | 0.00 | 76 | 1008.0 |
| 20260505192557 | 80 | 175 | 5.2 | 11.3 | 0.00 | 0.00 | 0.00 | 75 | 1007.8 |
| 20260505192054 | 80 | 210 | 5.2 | 11.3 | 0.00 | 0.00 | 0.00 | 75 | 1008.0 |
| 20260505191602 | 80 | 200 | 4.3 | 8.7 | 0.00 | 0.00 | 0.00 | 74 | 1008.1 |
| 20260505191053 | 81 | 192 | 3.5 | 9.6 | 0.00 | 0.00 | 0.00 | 76 | 1008.0 |
| 20260505190553 | 81 | 146 | 3.5 | 9.6 | 0.00 | 0.00 | 0.00 | 76 | 1008.2 |
| 20260505190056 | 80 | 205 | 4.3 | 8.7 | 0.00 | 0.00 | 0.00 | 75 | 1008.2 |
| 20260505185553 | 79 | 162 | 4.3 | 7.8 | 0.00 | 0.00 | 0.00 | 78 | 1008.2 |
| 20260505185053 | 79 | 228 | 2.6 | 8.7 | 0.00 | 0.00 | 0.00 | 77 | 1008.3 |
| 20260505184558 | 78 | 182 | 2.6 | 8.7 | 0.00 | 0.00 | 0.00 | 78 | 1008.3 |
| 20260505184054 | 78 | 182 | 2.6 | 8.7 | 0.00 | 0.00 | 0.00 | 77 | 1008.5 |
| 20260505183553 | 78 | 275 | 2.6 | 8.7 | 0.00 | 0.00 | 0.00 | 79 | 1008.6 |
| 20260505183054 | 78 | 170 | 4.3 | 8.7 | 0.00 | 0.00 | 0.00 | 78 | 1008.7 |
| 20260505182555 | 78 | 180 | 2.6 | 7.8 | 0.00 | 0.00 | 0.00 | 79 | 1008.9 |
| 20260505182054 | 78 | 186 | 4.3 | 7.8 | 0.00 | 0.00 | 0.00 | 78 | 1008.8 |
| 20260505181552 | 78 | 182 | 1.7 | 9.6 | 0.00 | 0.00 | 0.00 | 79 | 1008.9 |
| 20260505181052 | 77 | 165 | 4.3 | 10.4 | 0.00 | 0.00 | 0.00 | 81 | 1008.9 |
| 20260505180553 | 77 | 180 | 4.3 | 10.4 | 0.00 | 0.00 | 0.00 | 79 | 1009.0 |
| 20260505180057 | 77 | 191 | 1.7 | 10.4 | 0.00 | 0.00 | 0.00 | 80 | 1009.0 |
| 20260505175553 | 77 | 208 | 3.5 | 8.7 | 0.00 | 0.00 | 0.00 | 79 | 1009.0 |
| 20260505175055 | 77 | 172 | 3.5 | 9.6 | 0.00 | 0.00 | 0.00 | 80 | 1009.1 |
| 20260505174556 | 77 | 173 | 4.3 | 9.6 | 0.00 | 0.00 | 0.00 | 80 | 1009.1 |
| 20260505174053 | 77 | 184 | 4.3 | 9.6 | 0.00 | 0.00 | 0.00 | 81 | 1009.1 |
| 20260505173552 | 76 | 160 | 4.3 | 10.4 | 0.00 | 0.00 | 0.00 | 81 | 1009.1 |
| 20260505173056 | 76 | 165 | 3.5 | 10.4 | 0.00 | 0.00 | 0.00 | 83 | 1009.1 |
| 20260505172556 | 75 | 168 | 4.3 | 7.8 | 0.00 | 0.00 | 0.00 | 82 | 1009.2 |
| 20260505172052 | 75 | 180 | 3.5 | 7.0 | 0.00 | 0.00 | 0.00 | 82 | 1009.3 |
| 20260505171558 | 75 | 167 | 3.5 | 7.8 | 0.00 | 0.00 | 0.00 | 83 | 1009.1 |
| 20260505171053 | 75 | 177 | 4.3 | 9.6 | 0.00 | 0.00 | 0.00 | 83 | 1009.2 |
| 20260505170553 | 75 | 205 | 3.5 | 9.6 | 0.00 | 0.00 | 0.00 | 83 | 1009.3 |
| 20260505170055 | 74 | 188 | 4.3 | 8.7 | 0.00 | 0.00 | 0.00 | 83 | 1009.3 |
| 20260505165552 | 74 | 172 | 4.3 | 10.4 | 0.00 | 0.00 | 0.00 | 84 | 1009.3 |
| 20260505165052 | 74 | 205 | 4.3 | 10.4 | 0.00 | 0.00 | 0.00 | 84 | 1009.3 |
| 20260505164556 | 74 | 168 | 3.5 | 7.8 | 0.00 | 0.00 | 0.00 | 85 | 1009.4 |
| 20260505164055 | 74 | 211 | 3.5 | 7.8 | 0.00 | 0.00 | 0.00 | 85 | 1009.3 |
| 20260505163554 | 74 | 167 | 2.6 | 7.8 | 0.00 | 0.00 | 0.00 | 86 | 1009.3 |
| 20260505163052 | 73 | 213 | 2.6 | 10.4 | 0.00 | 0.00 | 0.00 | 86 | 1009.4 |
| 20260505162553 | 73 | 211 | 3.5 | 10.4 | 0.00 | 0.00 | 0.00 | 85 | 1009.4 |
| 20260505162053 | 73 | 200 | 3.5 | 10.4 | 0.00 | 0.00 | 0.00 | 86 | 1009.2 |
| 20260505161555 | 73 | 157 | 2.6 | 8.7 | 0.00 | 0.00 | 0.00 | 86 | 1009.3 |
| 20260505161053 | 73 | 221 | 3.5 | 8.7 | 0.00 | 0.00 | 0.00 | 86 | 1009.3 |
| 20260505160552 | 73 | 360 | 2.6 | 8.7 | 0.00 | 0.00 | 0.00 | 86 | 1009.1 |
| 20260505153057 | 72 | 360 | 3.5 | 8.7 | 0.00 | 0.00 | 0.00 | 87 | 1009.4 |
| 20260505152556 | 72 | 183 | 2.6 | 8.7 | 0.00 | 0.00 | 0.00 | 87 | 1009.4 |
| 20260505152053 | 72 | 360 | 2.6 | 7.0 | 0.00 | 0.00 | 0.00 | 87 | 1009.3 |
| 20260505151553 | 72 | 219 | 1.7 | 10.4 | 0.00 | 0.00 | 0.00 | 87 | 1009.3 |
| 20260505151053 | 72 | 187 | 4.3 | 12.2 | 0.00 | 0.00 | 0.00 | 87 | 1009.3 |
| 20260505150553 | 72 | 218 | 4.3 | 12.2 | 0.00 | 0.00 | 0.00 | 87 | 1009.3 |
| 20260505140553 | 71 | 173 | 3.5 | 8.7 | 0.00 | 0.00 | 0.00 | 88 | 1008.8 |
| 20260505140123 | 71 | 174 | 2.6 | 12.2 | 0.00 | 0.00 | 0.00 | 88 | 1008.7 |
| 20260505124554 | 70 | 198 | 4.3 | 9.6 | 0.00 | 0.00 | 0.00 | 88 | 1008.1 |
| 20260505124053 | 70 | 155 | 4.3 | 9.6 | 0.00 | 0.00 | 0.00 | 88 | 1008.0 |
| 20260505123552 | 70 | 171 | 3.5 | 10.4 | 0.00 | 0.00 | 0.00 | 88 | 1007.9 |
| 20260505123059 | 70 | 209 | 3.5 | 10.4 | 0.00 | 0.00 | 0.00 | 88 | 1007.8 |
| 20260505122552 | 70 | 162 | 3.5 | 8.7 | 0.00 | 0.00 | 0.00 | 88 | 1007.7 |
| 20260505122052 | 70 | 153 | 3.5 | 13.0 | 0.00 | 0.00 | 0.00 | 88 | 1007.7 |
| 20260505121552 | 70 | 192 | 6.1 | 13.0 | 0.00 | 0.00 | 0.00 | 88 | 1007.5 |
| 20260505121053 | 70 | 209 | 4.3 | 10.4 | 0.00 | 0.00 | 0.00 | 88 | 1007.5 |
| 20260505120552 | 70 | 214 | 3.5 | 10.4 | 0.00 | 0.00 | 0.00 | 88 | 1007.4 |
| 20260505120112 | 70 | 171 | 4.3 | 10.4 | 0.00 | 0.00 | 0.00 | 88 | 1007.3 |
| 20260505115552 | 70 | 243 | 4.3 | 12.2 | 0.00 | 0.00 | 0.00 | 88 | 1007.2 |
| 20260505115053 | 70 | 169 | 6.1 | 12.2 | 0.00 | 0.00 | 0.00 | 87 | 1007.2 |
| 20260505114558 | 70 | 187 | 4.3 | 9.6 | 0.00 | 0.00 | 0.00 | 87 | 1007.3 |
| 20260505114054 | 70 | 181 | 3.5 | 12.2 | 0.00 | 0.00 | 0.00 | 87 | 1007.3 |
| 20260505113557 | 70 | 241 | 3.5 | 12.2 | 0.00 | 0.00 | 0.00 | 87 | 1007.3 |
| 20260505113105 | 70 | 190 | 6.1 | 12.2 | 0.00 | 0.00 | 0.00 | 87 | 1007.4 |
| 20260505112552 | 70 | 167 | 3.5 | 8.7 | 0.00 | 0.00 | 0.00 | 87 | 1007.4 |
| 20260505112052 | 70 | 226 | 5.2 | 9.6 | 0.00 | 0.00 | 0.00 | 87 | 1007.1 |
| 20260505111605 | 70 | 207 | 4.3 | 12.2 | 0.00 | 0.00 | 0.00 | 87 | 1007.1 |
| 20260505111052 | 70 | 168 | 6.1 | 12.2 | 0.00 | 0.00 | 0.00 | 87 | 1007.2 |
| 20260505110553 | 70 | 243 | 3.5 | 9.6 | 0.00 | 0.00 | 0.00 | 87 | 1007.3 |
| 20260505102052 | 70 | 210 | 5.2 | 12.2 | 0.00 | 0.00 | 0.00 | 86 | 1007.5 |
| 20260505101558 | 70 | 187 | 4.3 | 10.4 | 0.00 | 0.00 | 0.00 | 86 | 1007.7 |
| 20260505101052 | 70 | 244 | 5.2 | 10.4 | 0.00 | 0.00 | 0.00 | 86 | 1007.7 |
| 20260505100555 | 70 | 218 | 4.3 | 13.0 | 0.00 | 0.00 | 0.00 | 86 | 1007.6 |
| 20260505100055 | 70 | 175 | 4.3 | 13.0 | 0.00 | 0.00 | 0.00 | 86 | 1007.9 |
| 20260505095553 | 70 | 204 | 3.5 | 8.7 | 0.00 | 0.00 | 0.00 | 86 | 1007.7 |
| 20260505095055 | 70 | 152 | 3.5 | 7.8 | 0.00 | 0.00 | 0.00 | 86 | 1007.6 |
| 20260505094602 | 70 | 177 | 4.3 | 7.8 | 0.00 | 0.00 | 0.00 | 85 | 1007.5 |
| 20260505094053 | 70 | 194 | 4.3 | 11.3 | 0.00 | 0.00 | 0.00 | 85 | 1007.9 |
| 20260505093557 | 70 | 194 | 5.2 | 11.3 | 0.00 | 0.00 | 0.00 | 85 | 1007.8 |
| 20260505093059 | 70 | 168 | 4.3 | 13.9 | 0.00 | 0.00 | 0.00 | 85 | 1007.9 |
| 20260505092554 | 70 | 197 | 4.3 | 13.9 | 0.00 | 0.00 | 0.00 | 85 | 1007.8 |
| 20260505092053 | 70 | 180 | 4.3 | 10.4 | 0.00 | 0.00 | 0.00 | 85 | 1007.7 |
| 20260505091611 | 70 | 217 | 4.3 | 10.4 | 0.00 | 0.00 | 0.00 | 85 | 1007.9 |
| 20260505091055 | 70 | 171 | 4.3 | 10.4 | 0.00 | 0.00 | 0.00 | 86 | 1008.0 |
| 20260505090553 | 70 | 198 | 6.1 | 10.4 | 0.00 | 0.00 | 0.00 | 86 | 1008.1 |
| 20260505085553 | 70 | 182 | 5.2 | 12.2 | 0.00 | 0.00 | 0.00 | 86 | 1008.0 |
| 20260505085053 | 70 | 169 | 5.2 | 12.2 | 0.00 | 0.00 | 0.00 | 86 | 1008.1 |
| 20260505084604 | 70 | 154 | 5.2 | 11.3 | 0.00 | 0.00 | 0.00 | 86 | 1008.2 |
| 20260505084053 | 70 | 172 | 3.5 | 9.6 | 0.00 | 0.00 | 0.00 | 86 | 1008.0 |
| 20260505083554 | 70 | 201 | 5.2 | 12.2 | 0.00 | 0.00 | 0.00 | 86 | 1008.0 |
| 20260505083105 | 70 | 197 | 5.2 | 12.2 | 0.00 | 0.00 | 0.00 | 86 | 1008.0 |
| 20260505082552 | 70 | 194 | 6.1 | 11.3 | 0.00 | 0.00 | 0.00 | 86 | 1008.4 |
| 20260505082052 | 70 | 177 | 6.1 | 11.3 | 0.00 | 0.00 | 0.00 | 86 | 1008.3 |
| 20260505081554 | 70 | 165 | 2.6 | 6.1 | 0.00 | 0.00 | 0.00 | 86 | 1008.3 |
| 20260505081052 | 70 | 198 | 2.6 | 10.4 | 0.00 | 0.00 | 0.00 | 86 | 1008.3 |
| 20260505080552 | 70 | 181 | 3.5 | 10.4 | 0.00 | 0.00 | 0.00 | 85 | 1008.3 |
| 20260505080054 | 70 | 209 | 5.2 | 13.9 | 0.00 | 0.00 | 0.00 | 85 | 1008.3 |
| 20260505075552 | 70 | 188 | 5.2 | 13.9 | 0.00 | 0.00 | 0.00 | 85 | 1008.2 |
| 20260505075052 | 70 | 173 | 6.1 | 11.3 | 0.00 | 0.00 | 0.00 | 85 | 1008.4 |
| 20260505074559 | 70 | 193 | 4.3 | 13.0 | 0.00 | 0.00 | 0.00 | 85 | 1008.5 |
| 20260505074052 | 70 | 233 | 5.2 | 13.0 | 0.00 | 0.00 | 0.00 | 85 | 1008.7 |
| 20260505073552 | 70 | 180 | 5.2 | 11.3 | 0.00 | 0.00 | 0.00 | 85 | 1008.6 |
| 20260505073057 | 70 | 195 | 6.1 | 11.3 | 0.00 | 0.00 | 0.00 | 85 | 1008.6 |
| 20260505072555 | 70 | 230 | 6.1 | 11.3 | 0.00 | 0.00 | 0.00 | 85 | 1008.8 |
| 20260505072054 | 70 | 201 | 5.2 | 15.6 | 0.00 | 0.00 | 0.00 | 85 | 1009.0 |
| 20260505071600 | 70 | 189 | 5.2 | 15.6 | 0.00 | 0.00 | 0.00 | 85 | 1009.0 |
| 20260505071052 | 70 | 175 | 4.3 | 11.3 | 0.00 | 0.00 | 0.00 | 85 | 1009.1 |
| 20260505070553 | 70 | 178 | 5.2 | 13.0 | 0.00 | 0.00 | 0.00 | 85 | 1009.1 |
| 20260505070104 | 70 | 134 | 5.2 | 13.0 | 0.00 | 0.00 | 0.00 | 85 | 1009.1 |
| 20260505065553 | 70 | 207 | 5.2 | 13.0 | 0.00 | 0.00 | 0.00 | 85 | 1009.2 |
| 20260505065052 | 70 | 181 | 4.3 | 10.4 | 0.00 | 0.00 | 0.00 | 85 | 1009.1 |
| 20260505064557 | 70 | 221 | 4.3 | 10.4 | 0.00 | 0.00 | 0.00 | 85 | 1009.1 |
| 20260505064053 | 70 | 130 | 5.2 | 10.4 | 0.00 | 0.00 | 0.00 | 85 | 1009.3 |
| 20260505063553 | 70 | 242 | 6.1 | 10.4 | 0.00 | 0.00 | 0.00 | 85 | 1009.2 |
| 20260505063054 | 70 | 154 | 3.5 | 9.6 | 0.00 | 0.00 | 0.00 | 85 | 1009.4 |
| 20260505062555 | 70 | 175 | 5.2 | 11.3 | 0.00 | 0.00 | 0.00 | 85 | 1009.4 |
| 20260505062056 | 70 | 182 | 4.3 | 12.2 | 0.00 | 0.00 | 0.00 | 84 | 1009.5 |
| 20260505061613 | 71 | 192 | 7.0 | 14.8 | 0.00 | 0.00 | 0.00 | 84 | 1009.6 |
| 20260505061053 | 71 | 173 | 6.1 | 14.8 | 0.00 | 0.00 | 0.00 | 84 | 1009.6 |
| 20260505060553 | 71 | 206 | 7.0 | 14.8 | 0.00 | 0.00 | 0.00 | 84 | 1009.6 |
| 20260505060059 | 71 | 167 | 5.2 | 12.2 | 0.00 | 0.00 | 0.00 | 84 | 1009.6 |
| 20260505055553 | 70 | 236 | 3.5 | 11.3 | 0.00 | 0.00 | 0.00 | 85 | 1009.5 |
| 20260505055053 | 71 | 151 | 4.3 | 11.3 | 0.00 | 0.00 | 0.00 | 85 | 1009.6 |
| 20260505054557 | 71 | 172 | 4.3 | 11.3 | 0.00 | 0.00 | 0.00 | 84 | 1009.6 |
| 20260505054053 | 71 | 179 | 4.3 | 8.7 | 0.00 | 0.00 | 0.00 | 84 | 1009.6 |
| 20260505053554 | 71 | 224 | 4.3 | 10.4 | 0.00 | 0.00 | 0.00 | 84 | 1009.5 |
| 20260505053059 | 71 | 226 | 5.2 | 10.4 | 0.00 | 0.00 | 0.00 | 84 | 1009.4 |
| 20260505052553 | 71 | 182 | 5.2 | 11.3 | 0.00 | 0.00 | 0.00 | 84 | 1009.5 |
| 20260505052053 | 71 | 211 | 6.1 | 13.0 | 0.00 | 0.00 | 0.00 | 84 | 1009.5 |
| 20260505051555 | 71 | 165 | 5.2 | 13.0 | 0.00 | 0.00 | 0.00 | 85 | 1009.6 |
| 20260505051052 | 71 | 213 | 5.2 | 10.4 | 0.00 | 0.00 | 0.00 | 85 | 1009.5 |
| 20260505050554 | 71 | 186 | 6.1 | 13.0 | 0.00 | 0.00 | 0.00 | 85 | 1009.5 |
| 20260505041601 | 72 | 360 | 3.5 | 10.4 | 0.00 | 0.00 | 0.00 | 82 | 1009.5 |
| 20260505041054 | 72 | 360 | 3.5 | 12.2 | 0.00 | 0.00 | 0.00 | 81 | 1009.3 |
| 20260505040554 | 72 | 214 | 5.2 | 12.2 | 0.00 | 0.00 | 0.00 | 81 | 1009.4 |
| 20260505035555 | 72 | 360 | 4.3 | 9.6 | 0.00 | 0.00 | 0.00 | 81 | 1009.4 |
| 20260505035057 | 73 | 224 | 5.2 | 9.6 | 0.00 | 0.00 | 0.00 | 80 | 1009.5 |
| 20260505034559 | 73 | 163 | 5.2 | 8.7 | 0.00 | 0.00 | 0.00 | 80 | 1009.4 |
| 20260505034051 | 73 | 207 | 5.2 | 9.6 | 0.00 | 0.00 | 0.00 | 80 | 1009.4 |
| 20260505033554 | 73 | 193 | 4.3 | 10.4 | 0.00 | 0.00 | 0.00 | 80 | 1009.4 |
| 20260505033102 | 73 | 187 | 5.2 | 10.4 | 0.00 | 0.00 | 0.00 | 80 | 1009.4 |
| 20260505032552 | 73 | 360 | 3.5 | 10.4 | 0.00 | 0.00 | 0.00 | 79 | 1009.4 |
| 20260505032056 | 73 | 161 | 2.6 | 10.4 | 0.00 | 0.00 | 0.00 | 79 | 1009.3 |
| 20260505031557 | 73 | 169 | 5.2 | 12.2 | 0.00 | 0.00 | 0.00 | 78 | 1009.3 |
| 20260505031053 | 74 | 221 | 6.1 | 12.2 | 0.00 | 0.00 | 0.00 | 78 | 1009.3 |
| 20260505030555 | 74 | 204 | 5.2 | 11.3 | 0.00 | 0.00 | 0.00 | 78 | 1009.4 |
| 20260505030104 | 74 | 216 | 4.3 | 10.4 | 0.00 | 0.00 | 0.00 | 78 | 1009.5 |
| 20260505025551 | 74 | 218 | 5.2 | 10.4 | 0.00 | 0.00 | 0.00 | 77 | 1009.5 |